Weather History for Bainbridge, GA

Change the Weather History Date:

Friday, October 25, 2013

  Actual Average (KMAI) Record (KMAI)
Temperature  
Mean Temperature 61 °F 66 °F  
Max Temperature 71 °F 78 °F 89 °F (2010)
Min Temperature 46 °F 54 °F 36 °F (1999)
Degree Days  
Heating Degree Days 4    
Month to date heating degree days  
Since 1 July heating degree days  
Cooling Degree Days 0    
Month to date cooling degree days  
Year to date cooling degree days  
Growing Degree Days 11 (Base 50)    
Moisture  
Dew Point 43 °F    
Average Humidity 62    
Maximum Humidity 100    
Minimum Humidity 26    
Precipitation  
Precipitation 0.00 in 0.12 in 0.02 in (1997)
Month to date precipitation 2.71  
Year to date precipitation 44.84  
Sea Level Pressure  
Sea Level Pressure 30.28 in    
Wind  
Wind Speed 2 mph (North)    
Max Wind Speed 14 mph    
Max Gust Speed 16 mph    
Visibility 10 miles    
Events      
T = Trace of Precipitation, MM = Missing Value Source: NWS Daily Summary

Daily Weather History Graph

Daily Weather History Graph

Search for Another Location

Airport:

Trip Planner

Search our weather history database for the weather conditions in past years. The results will help you decide how hot, cold, wet, or windy it might be!

Date:

Astronomy

Oct. 25, 2013 Rise Set
Actual Time 7:48 AM EDT 6:56 PM EDT
Civil Twilight 7:23 AM EDT 7:20 PM EDT
Nautical Twilight 6:55 AM EDT 7:49 PM EDT
Astronomical Twilight 6:27 AM EDT 8:17 PM EDT
Moon No Moon Rise 1:22 PM EDT (10/25)
Length of Visible Light 11h 57m
Length of Day
11h 07m
Waning Gibbous, 62% of the Moon is Illuminated
Oct 25
Waning Gibbous
Oct 26
Last Quarter
Nov 3
New
Nov 10
First Quarter
Nov 17
Full

Hourly Weather History & Observations

Time (EDT) Temp. Dew Point Humidity Pressure Visibility Wind Dir Wind Speed Gust Speed Precip Events Conditions
12:15 AM 55.4 °F 51.8 °F 88% 30.20 in 10.0 mi Calm Calm - N/A   Clear
12:35 AM 53.6 °F 50.0 °F 88% 30.20 in 10.0 mi Calm Calm - N/A   Clear
12:55 AM 53.6 °F 51.8 °F 94% 30.20 in 10.0 mi Calm Calm - N/A   Clear
1:15 AM 53.6 °F 51.8 °F 94% 30.19 in 10.0 mi Calm Calm - N/A   Clear
1:35 AM 53.6 °F 50.0 °F 88% 30.20 in 10.0 mi Calm Calm - N/A   Clear
1:55 AM 53.6 °F 51.8 °F 94% 30.20 in 10.0 mi Calm Calm - N/A   Clear
2:15 AM 53.6 °F 51.8 °F 94% 30.20 in 10.0 mi Calm Calm - N/A   Clear
2:35 AM 53.6 °F 51.8 °F 94% 30.20 in 10.0 mi Calm Calm - N/A   Clear
2:55 AM 53.6 °F 51.8 °F 94% 30.20 in 10.0 mi Calm Calm - N/A   Clear
3:15 AM 53.6 °F 51.8 °F 94% 30.20 in 10.0 mi Calm Calm - N/A   Clear
3:35 AM 53.6 °F 51.8 °F 94% 30.20 in 10.0 mi Calm Calm - N/A   Clear
3:55 AM 53.6 °F 51.8 °F 94% 30.20 in 10.0 mi Calm Calm - N/A   Clear
4:15 AM 53.6 °F 51.8 °F 94% 30.21 in 10.0 mi Calm Calm - N/A   Clear
4:35 AM 51.8 °F 51.8 °F 100% 30.22 in 10.0 mi Calm Calm - N/A   Clear
4:55 AM 53.6 °F 51.8 °F 94% 30.22 in 10.0 mi Calm Calm - N/A   Clear
5:15 AM 53.6 °F 51.8 °F 94% 30.23 in 10.0 mi Calm Calm - N/A   Clear
5:35 AM 53.6 °F 51.8 °F 94% 30.24 in 10.0 mi NNW 3.5 mph - N/A   Clear
5:55 AM 53.6 °F 51.8 °F 94% 30.25 in 10.0 mi NNW 5.8 mph - N/A   Clear
6:15 AM 53.6 °F 50.0 °F 88% 30.26 in 10.0 mi North 5.8 mph - N/A   Clear
6:35 AM 53.6 °F 50.0 °F 88% 30.27 in 10.0 mi North 5.8 mph - N/A   Clear
6:55 AM 53.6 °F 48.2 °F 82% 30.28 in 10.0 mi North 8.1 mph - N/A   Clear
7:15 AM 53.6 °F 48.2 °F 82% 30.28 in 10.0 mi North 6.9 mph - N/A   Clear
7:35 AM 53.6 °F 48.2 °F 82% 30.29 in 10.0 mi North 8.1 mph - N/A   Clear
7:55 AM 53.6 °F 46.4 °F 77% 30.31 in 10.0 mi North 6.9 mph - N/A   Clear
8:15 AM 53.6 °F 50.0 °F 88% 30.31 in 10.0 mi North 6.9 mph - N/A   Clear
8:35 AM 53.6 °F 46.4 °F 77% 30.33 in 10.0 mi North 8.1 mph - N/A   Clear
8:55 AM 53.6 °F 46.4 °F 77% 30.33 in 10.0 mi NNE 8.1 mph - N/A   Clear
9:15 AM 53.6 °F 46.4 °F 77% 30.34 in 10.0 mi NNE 10.4 mph 16.1 mph N/A   Clear
9:35 AM 55.4 °F 44.6 °F 67% 30.36 in 10.0 mi NNE 11.5 mph - N/A   Clear
9:55 AM 59.0 °F 46.4 °F 63% 30.36 in 10.0 mi NNE 12.7 mph - N/A   Clear
10:15 AM 59.0 °F 44.6 °F 59% 30.36 in 10.0 mi North 13.8 mph - N/A   Clear
10:35 AM 60.8 °F 44.6 °F 55% 30.37 in 10.0 mi North 10.4 mph - N/A   Clear
10:55 AM 60.8 °F 46.4 °F 59% 30.37 in 10.0 mi NNE 9.2 mph - N/A   Clear
11:15 AM 60.8 °F 44.6 °F 55% 30.37 in 10.0 mi North 6.9 mph - N/A   Clear
11:35 AM 62.6 °F 46.4 °F 55% 30.36 in 10.0 mi North 6.9 mph - N/A   Clear
11:55 AM 62.6 °F 46.4 °F 55% 30.36 in 10.0 mi North 8.1 mph - N/A   Clear
12:15 PM 64.4 °F 46.4 °F 52% 30.36 in 10.0 mi North 8.1 mph - N/A   Clear
12:35 PM 64.4 °F 46.4 °F 52% 30.35 in 10.0 mi NNW 8.1 mph - N/A   Clear
12:55 PM 66.2 °F 46.4 °F 49% 30.33 in 10.0 mi Calm Calm - N/A   Clear
1:15 PM 66.2 °F 46.4 °F 49% 30.33 in 10.0 mi North 6.9 mph - N/A   Clear
1:35 PM 68.0 °F 46.4 °F 46% 30.32 in 10.0 mi NW 8.1 mph - N/A   Clear
1:55 PM 68.0 °F 42.8 °F 40% 30.31 in 10.0 mi NNW 9.2 mph - N/A   Clear
2:15 PM 68.0 °F 37.4 °F 33% 30.30 in 10.0 mi North 8.1 mph - N/A   Clear
2:35 PM 69.8 °F 37.4 °F 31% 30.29 in 10.0 mi Calm Calm - N/A   Clear
2:55 PM 69.8 °F 35.6 °F 28% 30.28 in 10.0 mi Calm Calm - N/A   Clear
3:15 PM 69.8 °F 37.4 °F 31% 30.27 in 10.0 mi Calm Calm - N/A   Clear
3:35 PM 71.6 °F 37.4 °F 29% 30.27 in 10.0 mi Calm Calm - N/A   Clear
3:55 PM 69.8 °F 35.6 °F 28% 30.27 in 10.0 mi NNW 5.8 mph - N/A   Clear
4:15 PM 69.8 °F 33.8 °F 27% 30.27 in 10.0 mi Calm Calm - N/A   Clear
4:35 PM 69.8 °F 33.8 °F 27% 30.27 in 10.0 mi Calm Calm - N/A   Clear
4:55 PM 68.0 °F 33.8 °F 28% 30.27 in 10.0 mi Calm Calm - N/A   Clear
5:15 PM 68.0 °F 32.0 °F 26% 30.27 in 10.0 mi Calm Calm - N/A   Clear
5:35 PM 68.0 °F 32.0 °F 26% 30.27 in 10.0 mi Calm Calm - N/A   Clear
5:55 PM 66.2 °F 32.0 °F 28% 30.27 in 10.0 mi Calm Calm - N/A   Clear
6:15 PM 64.4 °F 32.0 °F 30% 30.27 in 10.0 mi Calm Calm - N/A   Clear
6:35 PM 62.6 °F 32.0 °F 32% 30.27 in 10.0 mi Calm Calm - N/A   Clear
6:55 PM 62.6 °F 32.0 °F 32% 30.27 in 10.0 mi Calm Calm - N/A   Clear
7:15 PM 60.8 °F 33.8 °F 36% 30.28 in 10.0 mi Calm Calm - N/A   Clear
7:35 PM 59.0 °F 35.6 °F 42% 30.28 in 10.0 mi Calm Calm - N/A   Clear
7:55 PM 59.0 °F 37.4 °F 45% 30.29 in 10.0 mi Calm Calm - N/A   Clear
8:15 PM 59.0 °F 39.2 °F 48% 30.30 in 10.0 mi Calm Calm - N/A   Clear
8:35 PM 59.0 °F 37.4 °F 45% 30.30 in 10.0 mi Calm Calm - N/A   Clear
8:55 PM 55.4 °F 35.6 °F 47% 30.31 in 10.0 mi Calm Calm - N/A   Clear
9:15 PM 55.4 °F 35.6 °F 47% 30.31 in 10.0 mi Calm Calm - N/A   Clear
9:35 PM 53.6 °F 35.6 °F 51% 30.31 in 10.0 mi Calm Calm - N/A   Clear
9:55 PM 53.6 °F 35.6 °F 51% 30.31 in 10.0 mi Calm Calm - N/A   Clear
10:15 PM 53.6 °F 35.6 °F 51% 30.32 in 10.0 mi Calm Calm - N/A   Clear
10:35 PM 53.6 °F 37.4 °F 54% 30.33 in 10.0 mi Calm Calm - N/A   Clear
10:55 PM 53.6 °F 37.4 °F 54% 30.33 in 10.0 mi Calm Calm - N/A   Clear
11:15 PM 51.8 °F 37.4 °F 58% 30.33 in 10.0 mi Calm Calm - N/A   Clear
11:35 PM 51.8 °F 35.6 °F 54% 30.33 in 10.0 mi Calm Calm - N/A   Clear
11:55 PM 46.4 °F 37.4 °F 71% 30.33 in 10.0 mi Calm Calm - N/A   Clear